Year,Month,Day,Hour,Minute,Value (Times are PST for temperature in C)
2009,07,29,00,00,21.90
2009,07,29,00,01,21.80
2009,07,29,00,02,21.70
2009,07,29,00,03,21.70
2009,07,29,00,04,21.60
2009,07,29,00,05,21.60
2009,07,29,00,06,21.60
2009,07,29,00,07,21.60
2009,07,29,00,08,21.60
2009,07,29,00,09,21.50
2009,07,29,00,10,21.40
2009,07,29,00,11,21.40
2009,07,29,00,12,21.40
2009,07,29,00,13,21.40
2009,07,29,00,14,21.30
2009,07,29,00,15,21.30
2009,07,29,00,16,21.30
2009,07,29,00,17,21.30
2009,07,29,00,18,21.30
2009,07,29,00,19,21.30
2009,07,29,00,20,21.30
2009,07,29,00,21,21.30
2009,07,29,00,22,21.30
2009,07,29,00,23,21.30
2009,07,29,00,24,21.30
2009,07,29,00,25,21.30
2009,07,29,00,26,21.30
2009,07,29,00,27,21.30
2009,07,29,00,28,21.30
2009,07,29,00,29,21.30
2009,07,29,00,30,21.30
2009,07,29,00,31,21.30
2009,07,29,00,32,21.30
2009,07,29,00,33,21.30
2009,07,29,00,34,21.30
2009,07,29,00,35,21.30
2009,07,29,00,36,21.30
2009,07,29,00,37,21.30
2009,07,29,00,38,21.30
2009,07,29,00,39,21.30
2009,07,29,00,40,21.30
2009,07,29,00,41,21.30
2009,07,29,00,42,21.30
2009,07,29,00,43,21.30
2009,07,29,00,44,21.30
2009,07,29,00,45,21.30
2009,07,29,00,46,21.30
2009,07,29,00,47,21.30
2009,07,29,00,48,21.30
2009,07,29,00,49,21.20
2009,07,29,00,50,21.20
2009,07,29,00,51,21.20
2009,07,29,00,52,21.20
2009,07,29,00,53,21.20
2009,07,29,00,54,21.20
2009,07,29,00,55,21.20
2009,07,29,00,56,21.20
2009,07,29,00,57,21.20
2009,07,29,00,58,21.20
2009,07,29,00,59,21.20
2009,07,29,01,00,21.10
2009,07,29,01,01,21.10
2009,07,29,01,02,21.10
2009,07,29,01,03,21.10
2009,07,29,01,04,21.10
2009,07,29,01,05,21.00
2009,07,29,01,06,21.00
2009,07,29,01,07,21.00
2009,07,29,01,08,21.00
2009,07,29,01,09,21.00
2009,07,29,01,10,21.00
2009,07,29,01,11,20.90
2009,07,29,01,12,20.90
2009,07,29,01,13,20.90
2009,07,29,01,14,20.90
2009,07,29,01,15,20.90
2009,07,29,01,16,20.90
2009,07,29,01,17,20.80
2009,07,29,01,18,20.80
2009,07,29,01,19,20.80
2009,07,29,01,20,20.80
2009,07,29,01,21,20.80
2009,07,29,01,22,20.70
2009,07,29,01,23,20.70
2009,07,29,01,24,20.70
2009,07,29,01,25,20.70
2009,07,29,01,26,20.70
2009,07,29,01,27,20.70
2009,07,29,01,28,20.60
2009,07,29,01,29,20.60
2009,07,29,01,30,20.60
2009,07,29,01,31,20.60
2009,07,29,01,32,20.60
2009,07,29,01,33,20.60
2009,07,29,01,34,20.60
2009,07,29,01,35,20.60
2009,07,29,01,36,20.60
2009,07,29,01,37,20.60
2009,07,29,01,38,20.60
2009,07,29,01,39,20.60
2009,07,29,01,40,20.60
2009,07,29,01,41,20.60
2009,07,29,01,42,20.50
2009,07,29,01,43,20.50
2009,07,29,01,44,20.50
2009,07,29,01,45,20.50
2009,07,29,01,46,20.60
2009,07,29,01,47,20.50
2009,07,29,01,48,20.50
2009,07,29,01,49,20.50
2009,07,29,01,50,20.50
2009,07,29,01,51,20.50
2009,07,29,01,52,20.50
2009,07,29,01,53,20.50
2009,07,29,01,54,20.50
2009,07,29,01,55,20.50
2009,07,29,01,56,20.50
2009,07,29,01,57,20.50
2009,07,29,01,58,20.50
2009,07,29,01,59,20.50
2009,07,29,02,00,20.50
2009,07,29,02,01,20.50
2009,07,29,02,02,20.50
2009,07,29,02,03,20.50
2009,07,29,02,04,20.50
2009,07,29,02,05,20.40
2009,07,29,02,06,20.40
2009,07,29,02,07,20.40
2009,07,29,02,08,20.40
2009,07,29,02,09,20.40
2009,07,29,02,10,20.40
2009,07,29,02,11,20.40
2009,07,29,02,12,20.30
2009,07,29,02,13,20.30
2009,07,29,02,14,20.30
2009,07,29,02,15,20.30
2009,07,29,02,16,20.30
2009,07,29,02,17,20.30
2009,07,29,02,18,20.30
2009,07,29,02,19,20.30
2009,07,29,02,20,20.30
2009,07,29,02,21,20.30
2009,07,29,02,22,20.30
2009,07,29,02,23,20.30
2009,07,29,02,24,20.30
2009,07,29,02,25,20.30
2009,07,29,02,26,20.30
2009,07,29,02,27,20.30
2009,07,29,02,28,20.30
2009,07,29,02,29,20.30
2009,07,29,02,30,20.20
2009,07,29,02,31,20.20
2009,07,29,02,32,20.20
2009,07,29,02,33,20.20
2009,07,29,02,34,20.20
2009,07,29,02,35,20.20
2009,07,29,02,36,20.20
2009,07,29,02,37,20.20
2009,07,29,02,38,20.10
2009,07,29,02,39,20.10
2009,07,29,02,40,20.10
2009,07,29,02,41,20.00
2009,07,29,02,42,19.90
2009,07,29,02,43,19.90
2009,07,29,02,44,19.90
2009,07,29,02,45,19.90
2009,07,29,02,46,19.90
2009,07,29,02,47,19.80
2009,07,29,02,48,19.80
2009,07,29,02,49,19.70
2009,07,29,02,50,19.70
2009,07,29,02,51,19.70
2009,07,29,02,52,19.60
2009,07,29,02,53,19.60
2009,07,29,02,54,19.50
2009,07,29,02,55,19.50
2009,07,29,02,56,19.50
2009,07,29,02,57,19.50
2009,07,29,02,58,19.40
2009,07,29,02,59,19.40
2009,07,29,03,00,19.40
2009,07,29,03,01,19.40
2009,07,29,03,02,19.30
2009,07,29,03,03,19.30
2009,07,29,03,04,19.30
2009,07,29,03,05,19.30
2009,07,29,03,06,19.30
2009,07,29,03,07,19.30
2009,07,29,03,08,19.30
2009,07,29,03,09,19.30
2009,07,29,03,10,19.30
2009,07,29,03,11,19.30
2009,07,29,03,12,19.30
2009,07,29,03,13,19.30
2009,07,29,03,14,19.20
2009,07,29,03,15,19.20
2009,07,29,03,16,19.20
2009,07,29,03,17,19.20
2009,07,29,03,18,19.20
2009,07,29,03,19,19.20
2009,07,29,03,20,19.20
2009,07,29,03,21,19.20
2009,07,29,03,22,19.10
2009,07,29,03,23,19.10
2009,07,29,03,24,19.10
2009,07,29,03,25,19.10
2009,07,29,03,26,19.10
2009,07,29,03,27,19.10
2009,07,29,03,28,19.10
2009,07,29,03,29,19.10
2009,07,29,03,30,19.10
2009,07,29,03,31,19.10
2009,07,29,03,32,19.10
2009,07,29,03,33,19.10
2009,07,29,03,34,19.10
2009,07,29,03,35,19.10
2009,07,29,03,36,19.10
2009,07,29,03,37,19.10
2009,07,29,03,38,19.10
2009,07,29,03,39,19.10
2009,07,29,03,40,19.10
2009,07,29,03,41,19.10
2009,07,29,03,42,19.10
2009,07,29,03,43,19.10
2009,07,29,03,44,19.10
2009,07,29,03,45,19.10
2009,07,29,03,46,19.00
2009,07,29,03,47,18.90
2009,07,29,03,48,18.90
2009,07,29,03,49,18.80
2009,07,29,03,50,18.70
2009,07,29,03,51,18.70
2009,07,29,03,52,18.60
2009,07,29,03,53,18.60
2009,07,29,03,54,18.50
2009,07,29,03,55,18.50
2009,07,29,03,56,18.50
2009,07,29,03,57,18.40
2009,07,29,03,58,18.40
2009,07,29,03,59,18.40
2009,07,29,04,00,18.40
2009,07,29,04,01,18.40
2009,07,29,04,02,18.40
2009,07,29,04,03,18.40
2009,07,29,04,04,18.40
2009,07,29,04,05,18.30
2009,07,29,04,06,18.30
2009,07,29,04,07,18.30
2009,07,29,04,08,18.30
2009,07,29,04,09,18.30
2009,07,29,04,10,18.30
2009,07,29,04,11,18.30
2009,07,29,04,12,18.30
2009,07,29,04,13,18.20
2009,07,29,04,14,18.20
2009,07,29,04,15,18.10
2009,07,29,04,16,17.90
2009,07,29,04,17,17.90
2009,07,29,04,18,17.80
2009,07,29,04,19,17.70
2009,07,29,04,20,17.60
2009,07,29,04,21,17.60
2009,07,29,04,22,17.50
2009,07,29,04,23,17.50
2009,07,29,04,24,17.40
2009,07,29,04,25,17.40
2009,07,29,04,26,17.40
2009,07,29,04,27,17.40
2009,07,29,04,28,17.40
2009,07,29,04,29,17.40
2009,07,29,04,30,17.40
2009,07,29,04,31,17.40
2009,07,29,04,32,17.40
2009,07,29,04,33,17.40
2009,07,29,04,34,17.40
2009,07,29,04,35,17.40
2009,07,29,04,36,17.40
2009,07,29,04,37,17.40
2009,07,29,04,38,17.40
2009,07,29,04,39,17.30
2009,07,29,04,40,17.30
2009,07,29,04,41,17.30
2009,07,29,04,42,17.30
2009,07,29,04,43,17.30
2009,07,29,04,44,17.30
2009,07,29,04,45,17.30
2009,07,29,04,46,17.30
2009,07,29,04,47,17.30
2009,07,29,04,48,17.30
2009,07,29,04,49,17.40
2009,07,29,04,50,17.40
2009,07,29,04,51,17.40
2009,07,29,04,52,17.40
2009,07,29,04,53,17.40
2009,07,29,04,54,17.50
2009,07,29,04,55,17.50
2009,07,29,04,56,17.50
2009,07,29,04,57,17.50
2009,07,29,04,58,17.50
2009,07,29,04,59,17.60
2009,07,29,05,00,17.60
2009,07,29,05,01,17.60
2009,07,29,05,02,17.60
2009,07,29,05,03,17.60
2009,07,29,05,04,17.60
2009,07,29,05,05,17.60
2009,07,29,05,06,17.60
2009,07,29,05,07,17.60
2009,07,29,05,08,17.70
2009,07,29,05,09,17.70
2009,07,29,05,10,17.80
2009,07,29,05,11,17.80
2009,07,29,05,12,17.80
2009,07,29,05,13,17.70
2009,07,29,05,14,17.70
2009,07,29,05,15,17.80
2009,07,29,05,16,17.80
2009,07,29,05,17,17.80
2009,07,29,05,18,17.80
2009,07,29,05,19,17.80
2009,07,29,05,20,17.80
2009,07,29,05,21,17.80
2009,07,29,05,22,17.80
2009,07,29,05,23,17.80
2009,07,29,05,24,17.80
2009,07,29,05,25,17.80
2009,07,29,05,26,17.80
2009,07,29,05,27,17.80
2009,07,29,05,28,17.80
2009,07,29,05,29,17.80
2009,07,29,05,30,17.80
2009,07,29,05,31,17.80
2009,07,29,05,32,17.90
2009,07,29,05,33,17.90
2009,07,29,05,34,17.90
2009,07,29,05,35,17.90
2009,07,29,05,36,18.10
2009,07,29,05,37,18.30
2009,07,29,05,38,18.40
2009,07,29,05,39,18.60
2009,07,29,05,40,18.80
2009,07,29,05,41,19.00
2009,07,29,05,42,19.10
2009,07,29,05,43,19.20
2009,07,29,05,44,19.30
2009,07,29,05,45,19.40
2009,07,29,05,46,19.50
2009,07,29,05,47,19.60
2009,07,29,05,48,19.60
2009,07,29,05,49,19.70
2009,07,29,05,50,19.80
2009,07,29,05,51,19.80
2009,07,29,05,52,19.90
2009,07,29,05,53,19.90
2009,07,29,05,54,19.90
2009,07,29,05,55,20.00
2009,07,29,05,56,20.10
2009,07,29,05,57,20.20
2009,07,29,05,58,20.20
2009,07,29,05,59,20.20
2009,07,29,06,00,20.20
2009,07,29,06,01,20.20
2009,07,29,06,02,20.20
2009,07,29,06,03,20.20
2009,07,29,06,04,20.20
2009,07,29,06,05,20.20
2009,07,29,06,06,20.20
2009,07,29,06,07,20.20
2009,07,29,06,08,20.20
2009,07,29,06,09,20.30
2009,07,29,06,10,20.30
2009,07,29,06,11,20.30
2009,07,29,06,12,20.30
2009,07,29,06,13,20.40
2009,07,29,06,14,20.40
2009,07,29,06,15,20.40
2009,07,29,06,16,20.50
2009,07,29,06,17,20.50
2009,07,29,06,18,20.60
2009,07,29,06,19,20.60
2009,07,29,06,20,20.60
2009,07,29,06,21,20.70
2009,07,29,06,22,20.70
2009,07,29,06,23,20.70
2009,07,29,06,24,20.70
2009,07,29,06,25,20.70
2009,07,29,06,26,20.70
2009,07,29,06,27,20.80
2009,07,29,06,28,20.80
2009,07,29,06,29,20.80
2009,07,29,06,30,20.80
2009,07,29,06,31,20.90
2009,07,29,06,32,20.90
2009,07,29,06,33,20.90
2009,07,29,06,34,20.90
2009,07,29,06,35,20.90
2009,07,29,06,36,20.90
2009,07,29,06,37,21.00
2009,07,29,06,38,21.00
2009,07,29,06,39,21.00
2009,07,29,06,40,20.90
2009,07,29,06,41,20.90
2009,07,29,06,42,21.00
2009,07,29,06,43,21.00
2009,07,29,06,44,21.00
2009,07,29,06,45,21.00
2009,07,29,06,46,21.00
2009,07,29,06,47,21.10
2009,07,29,06,48,21.10
2009,07,29,06,49,21.20
2009,07,29,06,50,21.30
2009,07,29,06,51,21.30
2009,07,29,06,52,21.40
2009,07,29,06,53,21.50
2009,07,29,06,54,21.60
2009,07,29,06,55,21.60
2009,07,29,06,56,21.70
2009,07,29,06,57,21.70
2009,07,29,06,58,21.70
2009,07,29,06,59,21.70
2009,07,29,07,00,21.70
2009,07,29,07,01,21.70
2009,07,29,07,02,21.70
2009,07,29,07,03,21.70
2009,07,29,07,04,21.60
2009,07,29,07,05,21.60
2009,07,29,07,06,21.60
2009,07,29,07,07,21.60
2009,07,29,07,08,21.60
2009,07,29,07,09,21.50
2009,07,29,07,10,21.40
2009,07,29,07,11,21.30
2009,07,29,07,12,21.30
2009,07,29,07,13,21.20
2009,07,29,07,14,21.20
2009,07,29,07,15,21.10
2009,07,29,07,16,21.10
2009,07,29,07,17,21.00
2009,07,29,07,18,21.00
2009,07,29,07,19,21.00
2009,07,29,07,20,21.00
2009,07,29,07,21,21.00
2009,07,29,07,22,21.00
2009,07,29,07,23,21.00
2009,07,29,07,24,21.00
2009,07,29,07,25,21.10
2009,07,29,07,26,21.10
2009,07,29,07,27,21.10
2009,07,29,07,28,21.20
2009,07,29,07,29,21.20
2009,07,29,07,30,21.30
2009,07,29,07,31,21.30
2009,07,29,07,32,21.30
2009,07,29,07,33,21.30
2009,07,29,07,34,21.30
2009,07,29,07,35,21.30
2009,07,29,07,36,21.30
2009,07,29,07,37,21.30
2009,07,29,07,38,21.30
2009,07,29,07,39,21.30
2009,07,29,07,40,21.30
2009,07,29,07,41,21.30
2009,07,29,07,42,21.30
2009,07,29,07,43,21.30
2009,07,29,07,44,21.30
2009,07,29,07,45,21.30
2009,07,29,07,46,21.20
2009,07,29,07,47,21.20
2009,07,29,07,48,21.10
2009,07,29,07,49,21.10
2009,07,29,07,50,21.00
2009,07,29,07,51,21.00
2009,07,29,07,52,21.00
2009,07,29,07,53,21.00
2009,07,29,07,54,21.10
2009,07,29,07,55,21.10
2009,07,29,07,56,21.10
2009,07,29,07,57,21.20
2009,07,29,07,58,21.30
2009,07,29,07,59,21.30
2009,07,29,08,00,21.40
2009,07,29,08,01,21.50
2009,07,29,08,02,21.60
2009,07,29,08,03,21.60
2009,07,29,08,04,21.70
2009,07,29,08,05,21.80
2009,07,29,08,06,21.80
2009,07,29,08,07,21.80
2009,07,29,08,08,21.80
2009,07,29,08,09,21.80
2009,07,29,08,10,21.80
2009,07,29,08,11,21.80
2009,07,29,08,12,21.80
2009,07,29,08,13,21.80
2009,07,29,08,14,21.80
2009,07,29,08,15,21.80
2009,07,29,08,16,21.80
2009,07,29,08,17,21.90
2009,07,29,08,18,21.90
2009,07,29,08,19,21.90
2009,07,29,08,20,22.00
2009,07,29,08,21,22.00
2009,07,29,08,22,22.00
2009,07,29,08,23,22.00
2009,07,29,08,24,22.00
2009,07,29,08,25,21.90
2009,07,29,08,26,21.90
2009,07,29,08,27,21.80
2009,07,29,08,28,21.80
2009,07,29,08,29,21.70
2009,07,29,08,30,21.70
2009,07,29,08,31,21.70
2009,07,29,08,32,21.70
2009,07,29,08,33,21.70
2009,07,29,08,34,21.70
2009,07,29,08,35,21.80
2009,07,29,08,36,21.80
2009,07,29,08,37,21.90
2009,07,29,08,38,21.90
2009,07,29,08,39,21.90
2009,07,29,08,40,22.00
2009,07,29,08,41,22.00
2009,07,29,08,42,22.00
2009,07,29,08,43,22.00
2009,07,29,08,44,22.00
2009,07,29,08,45,22.00
2009,07,29,08,46,22.00
2009,07,29,08,47,22.00
2009,07,29,08,48,22.00
2009,07,29,08,49,22.00
2009,07,29,08,50,22.10
2009,07,29,08,51,22.10
2009,07,29,08,52,22.20
2009,07,29,08,53,22.20
2009,07,29,08,54,22.20
2009,07,29,08,55,22.20
2009,07,29,08,56,22.30
2009,07,29,08,57,22.30
2009,07,29,08,58,22.40
2009,07,29,08,59,22.40
2009,07,29,09,00,22.40
2009,07,29,09,01,22.40
2009,07,29,09,02,22.50
2009,07,29,09,03,22.50
2009,07,29,09,04,22.50
2009,07,29,09,05,22.50
2009,07,29,09,06,22.50
2009,07,29,09,07,22.50
2009,07,29,09,08,22.60
2009,07,29,09,09,22.60
2009,07,29,09,10,22.70
2009,07,29,09,11,22.80
2009,07,29,09,12,22.80
2009,07,29,09,13,22.90
2009,07,29,09,14,22.90
2009,07,29,09,15,22.90
2009,07,29,09,16,22.90
2009,07,29,09,17,22.90
2009,07,29,09,18,22.90
2009,07,29,09,19,22.90
2009,07,29,09,20,22.90
2009,07,29,09,21,22.90
2009,07,29,09,22,22.90
2009,07,29,09,23,22.90
2009,07,29,09,24,23.00
2009,07,29,09,25,23.00
2009,07,29,09,26,22.90
2009,07,29,09,27,22.90
2009,07,29,09,28,22.90
2009,07,29,09,29,22.80
2009,07,29,09,30,22.80
2009,07,29,09,31,22.80
2009,07,29,09,32,22.80
2009,07,29,09,33,22.80
2009,07,29,09,34,22.90
2009,07,29,09,35,22.90
2009,07,29,09,36,22.90
2009,07,29,09,37,22.90
2009,07,29,09,38,22.90
2009,07,29,09,39,22.90
2009,07,29,09,40,22.90
2009,07,29,09,41,22.90
2009,07,29,09,42,22.90
2009,07,29,09,43,22.90
2009,07,29,09,44,22.90
2009,07,29,09,45,22.90
2009,07,29,09,46,22.90
2009,07,29,09,47,22.90
2009,07,29,09,48,22.90
2009,07,29,09,49,22.90
2009,07,29,09,50,22.90
2009,07,29,09,51,22.90
2009,07,29,09,52,22.90
2009,07,29,09,53,22.90
2009,07,29,09,54,22.90
2009,07,29,09,55,22.90
2009,07,29,09,56,22.90
2009,07,29,09,57,23.00
2009,07,29,09,58,23.10
2009,07,29,09,59,23.10
2009,07,29,10,00,23.20
2009,07,29,10,01,23.20
2009,07,29,10,02,23.30
2009,07,29,10,03,23.30
2009,07,29,10,04,23.40
2009,07,29,10,05,23.40
2009,07,29,10,06,23.60
2009,07,29,10,07,23.60
2009,07,29,10,08,23.70
2009,07,29,10,09,23.70
2009,07,29,10,10,23.90
2009,07,29,10,11,24.00
2009,07,29,10,12,24.10
2009,07,29,10,13,24.10
2009,07,29,10,14,24.10
2009,07,29,10,15,24.10
2009,07,29,10,16,24.20
2009,07,29,10,17,24.30
2009,07,29,10,18,24.30
2009,07,29,10,19,24.30
2009,07,29,10,20,24.30
2009,07,29,10,21,24.30
2009,07,29,10,22,24.30
2009,07,29,10,23,24.30
2009,07,29,10,24,24.40
2009,07,29,10,25,24.40
2009,07,29,10,26,24.30
2009,07,29,10,27,24.30
2009,07,29,10,28,24.30
2009,07,29,10,29,24.30
2009,07,29,10,30,24.40
2009,07,29,10,31,24.40
2009,07,29,10,32,24.40
2009,07,29,10,33,24.40
2009,07,29,10,34,24.40
2009,07,29,10,35,24.40
2009,07,29,10,36,24.40
2009,07,29,10,37,24.40
2009,07,29,10,38,24.40
2009,07,29,10,39,24.40
2009,07,29,10,40,24.50
2009,07,29,10,41,24.50
2009,07,29,10,42,24.60
2009,07,29,10,43,24.60
2009,07,29,10,44,24.70
2009,07,29,10,45,24.70
2009,07,29,10,46,24.80
2009,07,29,10,47,24.80
2009,07,29,10,48,24.80
2009,07,29,10,49,24.80
2009,07,29,10,50,24.80
2009,07,29,10,51,24.80
2009,07,29,10,52,24.80
2009,07,29,10,53,24.80
2009,07,29,10,54,24.80
2009,07,29,10,55,24.90
2009,07,29,10,56,24.90
2009,07,29,10,57,24.90
2009,07,29,10,58,24.90
2009,07,29,10,59,24.90
2009,07,29,11,00,25.00
2009,07,29,11,01,25.00
2009,07,29,11,02,25.00
2009,07,29,11,03,25.10
2009,07,29,11,04,25.00
2009,07,29,11,05,25.10
2009,07,29,11,06,25.20
2009,07,29,11,07,25.20
2009,07,29,11,08,25.30
2009,07,29,11,09,25.30
2009,07,29,11,10,25.40
2009,07,29,11,11,25.40
2009,07,29,11,12,25.40
2009,07,29,11,13,25.40
2009,07,29,11,14,25.40
2009,07,29,11,15,25.50
2009,07,29,11,16,25.60
2009,07,29,11,17,25.60
2009,07,29,11,18,25.60
2009,07,29,11,19,25.60
2009,07,29,11,20,25.60
2009,07,29,11,21,25.60
2009,07,29,11,22,25.60
2009,07,29,11,23,25.60
2009,07,29,11,24,25.60
2009,07,29,11,25,25.70
2009,07,29,11,26,25.70
2009,07,29,11,27,25.80
2009,07,29,11,28,25.80
2009,07,29,11,29,25.80
2009,07,29,11,30,25.80
2009,07,29,11,31,25.80
2009,07,29,11,32,25.80
2009,07,29,11,33,25.90
2009,07,29,11,34,25.90
2009,07,29,11,35,25.90
2009,07,29,11,36,25.90
2009,07,29,11,37,26.00
2009,07,29,11,38,26.10
2009,07,29,11,39,26.20
2009,07,29,11,40,26.20
2009,07,29,11,41,26.30
2009,07,29,11,42,26.30
2009,07,29,11,43,26.40
2009,07,29,11,44,26.40
2009,07,29,11,45,26.40
2009,07,29,11,46,26.40
2009,07,29,11,47,26.40
2009,07,29,11,48,26.40
2009,07,29,11,49,26.40
2009,07,29,11,50,26.40
2009,07,29,11,51,26.60
2009,07,29,11,52,26.60
2009,07,29,11,53,26.60
2009,07,29,11,54,26.60
2009,07,29,11,55,26.60
2009,07,29,11,56,26.60
2009,07,29,11,57,26.60
2009,07,29,11,58,26.60
2009,07,29,11,59,26.60
2009,07,29,12,00,26.60
2009,07,29,12,01,26.60
2009,07,29,12,02,26.60
2009,07,29,12,03,26.60
2009,07,29,12,04,26.70
2009,07,29,12,05,26.70
2009,07,29,12,06,26.70
2009,07,29,12,07,26.70
2009,07,29,12,08,26.70
2009,07,29,12,09,26.70
2009,07,29,12,10,26.80
2009,07,29,12,11,26.90
2009,07,29,12,12,26.90
2009,07,29,12,13,26.90
2009,07,29,12,14,27.00
2009,07,29,12,15,27.10
2009,07,29,12,16,27.20
2009,07,29,12,17,27.30
2009,07,29,12,18,27.30
2009,07,29,12,19,27.40
2009,07,29,12,20,27.50
2009,07,29,12,21,27.60
2009,07,29,12,22,27.70
2009,07,29,12,23,27.70
2009,07,29,12,24,27.60
2009,07,29,12,25,27.60
2009,07,29,12,26,27.60
2009,07,29,12,27,27.40
2009,07,29,12,28,27.40
2009,07,29,12,29,27.30
2009,07,29,12,30,27.40
2009,07,29,12,31,27.30
2009,07,29,12,32,27.30
2009,07,29,12,33,27.30
2009,07,29,12,34,27.30
2009,07,29,12,35,27.30
2009,07,29,12,36,27.30
2009,07,29,12,37,27.30
2009,07,29,12,38,27.30
2009,07,29,12,39,27.30
2009,07,29,12,40,27.30
2009,07,29,12,41,27.30
2009,07,29,12,42,27.30
2009,07,29,12,43,27.30
2009,07,29,12,44,27.30
2009,07,29,12,45,27.30
2009,07,29,12,46,27.40
2009,07,29,12,47,27.50
2009,07,29,12,48,27.60
2009,07,29,12,49,27.60
2009,07,29,12,50,27.70
2009,07,29,12,51,27.70
2009,07,29,12,52,27.70
2009,07,29,12,53,27.70
2009,07,29,12,54,27.70
2009,07,29,12,55,27.70
2009,07,29,12,56,27.70
2009,07,29,12,57,27.80
2009,07,29,12,58,27.80
2009,07,29,12,59,27.90
2009,07,29,13,00,27.90
2009,07,29,13,01,27.80
2009,07,29,13,02,27.90
2009,07,29,13,03,27.90
2009,07,29,13,04,27.90
2009,07,29,13,05,28.00
2009,07,29,13,06,28.10
2009,07,29,13,07,28.30
2009,07,29,13,08,28.40
2009,07,29,13,09,28.50
2009,07,29,13,10,28.60
2009,07,29,13,11,28.70
2009,07,29,13,12,28.70
2009,07,29,13,13,28.60
2009,07,29,13,14,28.50
2009,07,29,13,15,28.30
2009,07,29,13,16,28.20
2009,07,29,13,17,28.20
2009,07,29,13,18,28.10
2009,07,29,13,19,28.10
2009,07,29,13,20,28.10
2009,07,29,13,21,28.10
2009,07,29,13,22,28.20
2009,07,29,13,23,28.20
2009,07,29,13,24,28.20
2009,07,29,13,25,28.20
2009,07,29,13,26,28.30
2009,07,29,13,27,28.30
2009,07,29,13,28,28.30
2009,07,29,13,29,28.30
2009,07,29,13,30,28.30
2009,07,29,13,31,28.30
2009,07,29,13,32,28.40
2009,07,29,13,33,28.50
2009,07,29,13,34,28.60
2009,07,29,13,35,28.60
2009,07,29,13,36,28.70
2009,07,29,13,37,28.80
2009,07,29,13,38,28.90
2009,07,29,13,39,28.80
2009,07,29,13,40,28.80
2009,07,29,13,41,28.80
2009,07,29,13,42,28.80
2009,07,29,13,43,28.80
2009,07,29,13,44,28.80
2009,07,29,13,45,28.80
2009,07,29,13,46,28.90
2009,07,29,13,47,29.00
2009,07,29,13,48,29.10
2009,07,29,13,49,29.10
2009,07,29,13,50,29.10
2009,07,29,13,51,29.00
2009,07,29,13,52,28.90
2009,07,29,13,53,28.90
2009,07,29,13,54,28.90
2009,07,29,13,55,28.90
2009,07,29,13,56,29.00
2009,07,29,13,57,29.10
2009,07,29,13,58,29.10
2009,07,29,13,59,29.20
2009,07,29,14,00,29.20
2009,07,29,14,01,29.30
2009,07,29,14,02,29.30
2009,07,29,14,03,29.30
2009,07,29,14,04,29.40
2009,07,29,14,05,29.50
2009,07,29,14,06,29.60
2009,07,29,14,07,29.70
2009,07,29,14,08,29.70
2009,07,29,14,09,29.80
2009,07,29,14,10,29.90
2009,07,29,14,11,30.00
2009,07,29,14,12,29.90
2009,07,29,14,13,29.90
2009,07,29,14,14,29.90
2009,07,29,14,15,29.90
2009,07,29,14,16,30.00
2009,07,29,14,17,30.20
2009,07,29,14,18,30.30
2009,07,29,14,19,30.40
2009,07,29,14,20,30.60
2009,07,29,14,21,30.60
2009,07,29,14,22,30.70
2009,07,29,14,23,30.70
2009,07,29,14,24,30.60
2009,07,29,14,25,30.60
2009,07,29,14,26,30.60
2009,07,29,14,27,30.60
2009,07,29,14,28,30.50
2009,07,29,14,29,30.40
2009,07,29,14,30,30.40
2009,07,29,14,31,30.40
2009,07,29,14,32,30.40
2009,07,29,14,33,30.40
2009,07,29,14,34,30.40
2009,07,29,14,35,30.40
2009,07,29,14,36,30.40
2009,07,29,14,37,30.40
2009,07,29,14,38,30.40
2009,07,29,14,39,30.40
2009,07,29,14,40,30.40
2009,07,29,14,41,30.40
2009,07,29,14,42,30.40
2009,07,29,14,43,30.50
2009,07,29,14,44,30.60
2009,07,29,14,45,30.70
2009,07,29,14,46,30.80
2009,07,29,14,47,30.80
2009,07,29,14,48,30.80
2009,07,29,14,49,30.80
2009,07,29,14,50,30.80
2009,07,29,14,51,30.80
2009,07,29,14,52,30.80
2009,07,29,14,53,30.80
2009,07,29,14,54,30.80
2009,07,29,14,55,30.90
2009,07,29,14,56,30.90
2009,07,29,14,57,31.00
2009,07,29,14,58,31.00
2009,07,29,14,59,30.90
2009,07,29,15,00,30.90
2009,07,29,15,01,30.90
2009,07,29,15,02,30.90
2009,07,29,15,03,30.90
2009,07,29,15,04,31.10
2009,07,29,15,05,31.20
2009,07,29,15,06,31.20
2009,07,29,15,07,31.20
2009,07,29,15,08,31.30
2009,07,29,15,09,31.40
2009,07,29,15,10,31.40
2009,07,29,15,11,31.50
2009,07,29,15,12,31.60
2009,07,29,15,13,31.60
2009,07,29,15,14,31.60
2009,07,29,15,15,31.60
2009,07,29,15,16,31.60
2009,07,29,15,17,31.60
2009,07,29,15,18,31.60
2009,07,29,15,19,31.60
2009,07,29,15,20,31.60
2009,07,29,15,21,31.50
2009,07,29,15,22,31.40
2009,07,29,15,23,31.50
2009,07,29,15,24,31.60
2009,07,29,15,25,31.60
2009,07,29,15,26,31.60
2009,07,29,15,27,31.60
2009,07,29,15,28,31.60
2009,07,29,15,29,31.70
2009,07,29,15,30,31.80
2009,07,29,15,31,31.90
2009,07,29,15,32,32.00
2009,07,29,15,33,32.10
2009,07,29,15,34,32.10
2009,07,29,15,35,32.20
2009,07,29,15,36,32.20
2009,07,29,15,37,32.20
2009,07,29,15,38,32.20
2009,07,29,15,39,32.30
2009,07,29,15,40,32.30
2009,07,29,15,41,32.30
2009,07,29,15,42,32.40
2009,07,29,15,43,32.40
2009,07,29,15,44,32.40
2009,07,29,15,45,32.50
2009,07,29,15,46,32.60
2009,07,29,15,47,32.60
2009,07,29,15,48,32.80
2009,07,29,15,49,32.80
2009,07,29,15,50,32.80
2009,07,29,15,51,32.80
2009,07,29,15,52,32.90
2009,07,29,15,53,33.00
2009,07,29,15,54,32.90
2009,07,29,15,55,32.90
2009,07,29,15,56,32.80
2009,07,29,15,57,32.80
2009,07,29,15,58,32.90
2009,07,29,15,59,32.80
2009,07,29,16,00,32.80
2009,07,29,16,01,32.60
2009,07,29,16,02,32.60
2009,07,29,16,03,32.60
2009,07,29,16,04,32.50
2009,07,29,16,05,32.50
2009,07,29,16,06,32.50
2009,07,29,16,07,32.50
2009,07,29,16,08,32.60
2009,07,29,16,09,32.60
2009,07,29,16,10,32.60
2009,07,29,16,11,32.60
2009,07,29,16,12,32.60
2009,07,29,16,13,32.50
2009,07,29,16,14,32.50
2009,07,29,16,15,32.60
2009,07,29,16,16,32.60
2009,07,29,16,17,32.80
2009,07,29,16,18,32.70
2009,07,29,16,19,32.80
2009,07,29,16,20,32.70
2009,07,29,16,21,32.60
2009,07,29,16,22,32.60
2009,07,29,16,23,32.50
2009,07,29,16,24,32.50
2009,07,29,16,25,32.50
2009,07,29,16,26,32.50
2009,07,29,16,27,32.60
2009,07,29,16,28,32.60
2009,07,29,16,29,32.60
2009,07,29,16,30,32.60
2009,07,29,16,31,32.80
2009,07,29,16,32,32.90
2009,07,29,16,33,33.00
2009,07,29,16,34,33.10
2009,07,29,16,35,33.30
2009,07,29,16,36,33.40
2009,07,29,16,37,33.50
2009,07,29,16,38,33.60
2009,07,29,16,39,33.60
2009,07,29,16,40,33.60
2009,07,29,16,41,33.60
2009,07,29,16,42,33.60
2009,07,29,16,43,33.50
2009,07,29,16,44,33.50
2009,07,29,16,45,33.60
2009,07,29,16,46,33.60
2009,07,29,16,47,33.60
2009,07,29,16,48,33.60
2009,07,29,16,49,33.60
2009,07,29,16,50,33.60
2009,07,29,16,51,33.70
2009,07,29,16,52,33.70
2009,07,29,16,53,33.70
2009,07,29,16,54,33.70
2009,07,29,16,55,33.70
2009,07,29,16,56,33.70
2009,07,29,16,57,33.80
2009,07,29,16,58,33.90
2009,07,29,16,59,34.00
2009,07,29,17,00,34.00
2009,07,29,17,01,34.00
2009,07,29,17,02,34.00
2009,07,29,17,03,34.10
2009,07,29,17,04,34.10
2009,07,29,17,05,34.10
2009,07,29,17,06,34.10
2009,07,29,17,07,34.10
2009,07,29,17,08,34.10
2009,07,29,17,09,34.10
2009,07,29,17,10,34.10
2009,07,29,17,11,34.10
2009,07,29,17,12,34.00
2009,07,29,17,13,34.00
2009,07,29,17,14,34.10
2009,07,29,17,15,34.10
2009,07,29,17,16,34.10
2009,07,29,17,17,34.20
2009,07,29,17,18,34.20
2009,07,29,17,19,34.30